Regional Weather Roundup
Issued by NWS Jackson, KY

Home | Current Version | Previous Version | Graphics & Text | Print | Product List | Glossary On
Versions: 1 2 3 4 5 6 7 8 9 10 11 12 13 14 15 16 17 18 19 20 21 22 23 24 25 26 27
000
ASUS43 KJKL 211810
RWRJKL

EAST KENTUCKY HOURLY WEATHER ROUNDUP
NATIONAL WEATHER SERVICE JACKSON KY
200 PM EDT MON AUG 21 2017

NOTE: "FAIR" INDICATES FEW OR NO CLOUDS BELOW 12,000 FEET WITH
NO SIGNIFICANT WEATHER AND/OR OBSTRUCTIONS TO VISIBILITY.

* THESE REPORTS ARE NOT UNDER NWS QUALITY CONTROL AND MAY NOT
  REPORT WEATHER SUCH AS PRECIPITATION AND FOG.

KYZ079-080-083-085-087-088-110-112-115-119-120-211900
...EASTERN KENTUCKY...

CITY           SKY/WX    TMP DP  RH WIND       PRES   REMARKS
JACKSON        MOSUNNY   86  69  56 CALM      30.22F HX  90
6HR MIN TEMP:  70; 6HR MAX TEMP:  87;

LONDON         SUNNY     87  66  49 CALM      30.20F
6HR MIN TEMP:  68; 6HR MAX TEMP:  88;

SOMERSET*      MOSUNNY   86  66  51 W5        30.20F
MONTICELLO*    MOSUNNY   88  69  53 W12       30.20F HX  92
6HR MIN TEMP:  68; 6HR MAX TEMP:  90; 6HR PCP:  0.01;

WILLIAMSBURG*  CLEAR     86  66  51 CALM      30.20F
MIDDLESBORO*   SUNNY     88  69  53 S7        30.21F HX  91
6HR MIN TEMP:  66; 6HR MAX TEMP:  89;

HARLAN APT*    CLEAR     86  64  48 CALM      30.23F
PIKE CO APT*     N/A     85  68  56 CALM      30.23S
BIG SANDY APT* CLEAR     87  67  51 CALM      30.21F
6HR MIN TEMP:  72; 6HR MAX TEMP:  88;

MOREHEAD APT*  CLEAR     86  66  51 SW8       30.20F
$$

KYZ035-036-041-042-044-050-067-078-099-211900
...CENTRAL KENTUCKY...

CITY           SKY/WX    TMP DP  RH WIND       PRES   REMARKS
MT STERLING*   SUNNY     86  70  58 S3        30.20F HX  90
FLEMING/MASON* SUNNY     88  64  44 S5        30.19S
DANVILLE*      CLOUDY    88  70  55 S6        30.19F HX  92
LEXINGTON      MOSUNNY   88  65  46 S6        30.18F HX  90
6HR MIN TEMP:  72; 6HR MAX TEMP:  89;

FRANKFORT      MOSUNNY   89  65  44 SW9       30.15F HX  91
6HR MIN TEMP:  69; 6HR MAX TEMP:  90;

LOUISVILLE     PTSUNNY   90  68  48 SW7       30.13F HX  94
6HR MIN TEMP:  75; 6HR MAX TEMP:  92;

LEBANON*         N/A     88  66  48 S5        30.17F HX  90
GLASGOW*       SUNNY     89  66  46 W3        30.16F HX  91
BOWLING GREEN  SUNNY     91  65  41 SW7       30.14F HX  93
6HR MIN TEMP:  71; 6HR MAX TEMP:  92;

$$

KYZ091>093-OHZ055-061-077-WVZ005-015-034-035-042-211900
...SOUTHERN OHIO/WEST VIRGINIA...

CITY           SKY/WX    TMP DP  RH WIND       PRES   REMARKS
COVINGTON      MOSUNNY   88  70  55 S9        30.15F HX  93
COLUMBUS       CLOUDY    88  73  61 S8        30.13F HX  95
DAYTON         CLOUDY    85  67  54 SW12      30.15F
WILMINGTON     MOSUNNY   86  72  62 S9        30.15F HX  92
HUNTINGTON     MOSUNNY   89  67  47 CALM      30.17F HX  92
CHARLESTON     MOSUNNY   87  65  47 CALM      30.19F
PINEVILLE*     SUNNY     86  64  47 MISG      30.30S
BECKLEY        MOSUNNY   83  64  52 NW6       30.29F
BLUEFIELD      SUNNY     79  61  53 CALM      30.32F
LOGAN CO APT*    N/A     84  68  58 CALM      30.23F
$$

VAZ002-007-008-TNZ017-027-036-066-071-211900
...SOUTHWEST VIRGINIA/EAST TENNESSEE...

CITY           SKY/WX    TMP DP  RH WIND       PRES   REMARKS
WISE*          MOSUNNY   84  55  37 CALM      30.31F
JONESVILLE*      N/A     86  66  51 W3        30.24F
ABINGDON*      MOSUNNY   87  66  50 W6        30.27F
BRISTOL        MOSUNNY   88  67  49 CALM      30.23F HX  91
MORRISTOWN*    MOCLDY    86  68  54 CALM      30.20F
SEVIERVILLE*   CLEAR     91  63  38 VRB3      30.18F HX  92
KNOXVILLE      MOSUNNY   88  68  51 NW6       30.18F HX  91
LAFOLLETTE*    CLEAR     88  70  55 VRB5      30.23F HX  92
OAK RIDGE      MOSUNNY   89  68  49 CALM      30.20F HX  93
CROSSVILLE     MOSUNNY   84  62  47 SW3       30.24F
NASHVILLE      MOSUNNY   92  69  47 W6        30.15F HX  97
$$

...KEY TO REMARKS...
VSB - VISIBILITY IN MILES
WCI - WIND CHILL INDEX
HX  - HEAT INDEX

$$




USA.gov is the U.S. government's official web portal to all federal, state and local government web resources and services.